EW7351 Weather Reports


time (UTC)temp
C
wind
direction
speed
KPH
gust
KPH
rain 1hr
cm
rain 24hr
cm
rain mn
cm
humidity
%
barometer
mb
20260906191303 37 129 3.2 12.9 0.00 0.00 0.00 38 1011.3
20260906190740 37 158 4.8 12.9 0.00 0.00 0.00 36 1011.4
20260906190215 37 109 4.8 12.9 0.00 0.00 0.00 37 1011.4
20260906185713 37 110 3.2 12.9 0.00 0.00 0.00 38 1011.5
20260906185429 37 130 4.8 12.9 0.00 0.00 0.00 40 1011.5
20260906184711 36 137 4.8 16.1 0.00 0.00 0.00 40 1011.6
20260906184436 36 143 4.8 16.1 0.00 0.00 0.00 40 1011.6
20260906183707 36 105 6.4 16.1 0.00 0.00 0.00 39 1011.9
20260906183147 36 118 6.4 16.1 0.00 0.00 0.00 41 1011.7
20260906182628 36 138 4.8 12.9 0.00 0.00 0.00 42 1011.9
20260906182345 36 211 3.2 9.7 0.00 0.00 0.00 40 1012.0
20260906181626 36 155 1.6 9.7 0.00 0.00 0.00 41 1012.2
20260906181324 37 105 1.6 14.5 0.00 0.00 0.00 41 1012.3
20260906180541 36 135 3.2 14.5 0.00 0.00 0.00 43 1012.3
20260906180044 36 184 3.2 12.9 0.00 0.00 0.00 44 1012.4
20260906175510 35 102 3.2 11.3 0.00 0.00 0.00 46 1012.4
20260906175009 35 274 4.8 12.9 0.00 0.00 0.00 44 1012.6
20260906174509 35 219 4.8 11.3 0.00 0.00 0.00 46 1012.6
20260906174003 35 86 4.8 16.1 0.00 0.00 0.00 47 1012.7
20260906173505 35 261 4.8 14.5 0.00 0.00 0.00 45 1012.7
20260906172954 35 271 3.2 9.7 0.00 0.00 0.00 46 1012.9
20260906172454 35 140 3.2 14.5 0.00 0.00 0.00 49 1012.9
20260906171932 35 115 4.8 14.5 0.00 0.00 0.00 47 1013.0
20260906171431 34 217 4.8 14.5 0.00 0.00 0.00 48 1013.1
20260906170928 34 163 4.8 14.5 0.00 0.00 0.00 48 1013.1
20260906170649 34 141 3.2 12.9 0.00 0.00 0.00 48 1013.2
20260906165905 35 104 1.6 11.3 0.00 0.00 0.00 47 1013.2
20260906165818 35 80 1.6 8.0 0.00 0.00 0.00 48 1013.3
20260906164815 34 124 1.6 8.0 0.00 0.00 0.00 50 1013.3
20260906164519 33 121 3.2 11.3 0.00 0.00 0.00 50 1013.4
20260906163739 33 125 4.8 11.3 0.00 0.00 0.00 50 1013.5
20260906163238 33 155 3.2 11.3 0.00 0.00 0.00 52 1013.3
20260906162718 34 157 3.2 14.5 0.00 0.00 0.00 50 1013.3
20260906162413 33 101 1.6 14.5 0.00 0.00 0.00 50 1013.3
20260906161635 33 97 3.2 11.3 0.00 0.00 0.00 52 1013.3
20260906161115 33 125 1.6 11.3 0.00 0.00 0.00 53 1013.3
20260906160559 33 125 1.6 8.0 0.00 0.00 0.00 54 1013.3
20260906160058 33 82 1.6 8.0 0.00 0.00 0.00 54 1013.3
20260906155555 33 111 0.0 3.2 0.00 0.00 0.00 56 1013.3
20260906155044 32 122 1.6 8.0 0.00 0.00 0.00 57 1013.4
20260906154520 32 115 1.6 8.0 0.00 0.00 0.00 58 1013.4
20260906154016 32 129 1.6 6.4 0.00 0.00 0.00 60 1013.4
20260906153454 31 103 1.6 8.0 0.00 0.00 0.00 61 1013.3
20260906152950 31 121 3.2 6.4 0.00 0.00 0.00 62 1013.2
20260906152447 31 198 1.6 9.7 0.00 0.00 0.00 62 1013.2
20260906151918 31 60 1.6 6.4 0.00 0.00 0.00 65 1013.1
20260906151418 31 114 3.2 9.7 0.00 0.00 0.00 64 1013.2
20260906150913 31 117 1.6 9.7 0.00 0.00 0.00 64 1013.2
20260906150410 31 4 1.6 9.7 0.00 0.00 0.00 65 1013.2
20260906145842 31 127 0.0 9.7 0.00 0.00 0.00 64 1013.1
20260906145339 31 130 0.0 6.4 0.00 0.00 0.00 65 1013.1
20260906144836 30 104 1.6 6.4 0.00 0.00 0.00 66 1013.1
20260906144311 30 122 0.0 3.2 0.00 0.00 0.00 67 1013.1
20260906143743 30 322 1.6 6.4 0.00 0.00 0.00 70 1013.2
20260906143430 29 122 1.6 6.4 0.00 0.00 0.00 70 1013.2
20260906142715 29 119 1.6 8.0 0.00 0.00 0.00 70 1013.2
20260906142146 28 124 1.6 8.0 0.00 0.00 0.00 73 1013.2
20260906141644 28 120 1.6 8.0 0.00 0.00 0.00 74 1013.2
20260906141138 28 133 1.6 8.0 0.00 0.00 0.00 73 1013.2
20260906140632 28 138 1.6 6.4 0.00 0.00 0.00 75 1013.2
20260906140131 28 115 1.6 6.4 0.00 0.00 0.00 76 1013.1
20260906135618 27 133 0.0 4.8 0.00 0.00 0.00 79 1013.0
20260906135118 27 145 0.0 3.2 0.00 0.00 0.00 80 1013.0
20260906134554 27 145 0.0 3.2 0.00 0.00 0.00 82 1013.0
20260906134246 26 134 0.0 3.2 0.00 0.00 0.00 84 1013.0
20260906133524 26 116 0.0 1.6 0.00 0.00 0.00 84 1013.1
20260906132955 26 116 0.0 3.2 0.00 0.00 0.00 85 1013.0
20260906132453 25 123 0.0 0.0 0.00 0.00 0.00 87 1013.0
20260906131923 25 123 0.0 0.0 0.00 0.00 0.00 87 1013.0
20260906131358 25 123 0.0 0.0 0.00 0.00 0.00 88 1013.0
20260906130842 25 123 0.0 0.0 0.00 0.00 0.00 88 1013.0
20260906130342 25 123 0.0 0.0 0.00 0.00 0.00 88 1012.8
20260906125845 25 123 0.0 0.0 0.00 0.00 0.00 88 1012.8
20260906125316 24 123 0.0 0.0 0.00 0.00 0.00 88 1012.8
20260906124812 24 123 0.0 0.0 0.00 0.00 0.00 88 1012.7
20260906124249 24 123 0.0 0.0 0.00 0.00 0.00 88 1012.7
20260906123735 24 123 0.0 0.0 0.00 0.00 0.00 88 1012.5
20260906123206 24 123 0.0 0.0 0.00 0.00 0.00 88 1012.4
20260906122925 24 123 0.0 0.0 0.00 0.00 0.00 88 1012.4
20260906122136 24 123 0.0 0.0 0.00 0.00 0.00 88 1012.5
20260906121635 24 123 0.0 0.0 0.00 0.00 0.00 87 1012.5
20260906121111 24 123 0.0 0.0 0.00 0.00 0.00 87 1012.3
20260906120540 24 123 0.0 0.0 0.00 0.00 0.00 87 1012.4
20260906120041 24 123 0.0 0.0 0.00 0.00 0.00 87 1012.3
20260906115513 24 123 0.0 0.0 0.00 0.00 0.00 87 1012.3
20260906114958 24 123 0.0 0.0 0.00 0.00 0.00 87 1012.3
20260906114728 24 123 0.0 0.0 0.00 0.00 0.00 87 1012.2
20260906113955 24 123 0.0 0.0 0.00 0.00 0.00 87 1012.3
20260906113454 24 123 0.0 0.0 0.00 0.00 0.00 87 1012.2
20260906112956 24 123 0.0 0.0 0.00 0.00 0.00 87 1012.2
20260906112453 24 123 0.0 0.0 0.00 0.00 0.00 87 1012.1
20260906111948 23 123 0.0 0.0 0.00 0.00 0.00 87 1012.0
20260906111424 24 123 0.0 0.0 0.00 0.00 0.00 86 1012.1
20260906110922 24 123 0.0 0.0 0.00 0.00 0.00 86 1012.1
20260906110410 24 123 0.0 0.0 0.00 0.00 0.00 86 1012.0
20260906105909 24 124 0.0 0.0 0.00 0.00 0.00 85 1012.0
20260906105344 24 123 0.0 0.0 0.00 0.00 0.00 86 1012.0
20260906104842 24 123 0.0 0.0 0.00 0.00 0.00 86 1011.9
20260906104342 24 123 0.0 0.0 0.00 0.00 0.00 85 1011.9
20260906104041 24 123 0.0 0.0 0.00 0.00 0.00 85 1012.0
20260906103250 24 123 0.0 0.0 0.00 0.00 0.00 85 1011.9
20260906102740 24 123 0.0 0.0 0.00 0.00 0.00 85 1011.7
20260906102234 24 123 0.0 0.0 0.00 0.00 0.00 84 1011.7
20260906101733 25 123 0.0 0.0 0.00 0.00 0.00 84 1011.6
20260906101204 25 123 0.0 0.0 0.00 0.00 0.00 84 1011.5
20260906100700 25 123 0.0 0.0 0.00 0.00 0.00 84 1011.6
20260906100200 25 123 0.0 0.0 0.00 0.00 0.00 84 1011.6
20260906095630 25 123 0.0 0.0 0.00 0.00 0.00 83 1011.6
20260906095351 25 123 0.0 0.0 0.00 0.00 0.00 83 1011.4
20260906094824 25 123 0.0 0.0 0.00 0.00 0.00 83 1011.3
20260906094707 25 123 0.0 0.0 0.00 0.00 0.00 82 1011.3
20260906093554 25 123 0.0 0.0 0.00 0.00 0.00 83 1011.2
20260906093051 25 123 0.0 0.0 0.00 0.00 0.00 83 1011.2
20260906092548 25 123 0.0 0.0 0.00 0.00 0.00 83 1011.1
20260906092047 25 123 0.0 0.0 0.00 0.00 0.00 83 1011.1
20260906091526 25 123 0.0 0.0 0.00 0.00 0.00 83 1011.1
20260906090952 25 123 0.0 0.0 0.00 0.00 0.00 82 1011.1
20260906090450 25 123 0.0 0.0 0.00 0.00 0.00 82 1011.1
20260906085922 25 123 0.0 0.0 0.00 0.00 0.00 81 1011.1
20260906085422 25 123 0.0 0.0 0.00 0.00 0.00 81 1011.0
20260906085121 25 123 0.0 0.0 0.00 0.00 0.00 81 1011.0
20260906084400 25 123 0.0 0.0 0.00 0.00 0.00 81 1010.9
20260906083837 25 123 0.0 0.0 0.00 0.00 0.00 81 1011.0
20260906083309 25 123 0.0 0.0 0.00 0.00 0.00 81 1011.0
20260906082957 25 123 0.0 0.0 0.00 0.00 0.00 81 1011.0
20260906082236 25 123 0.0 0.0 0.00 0.00 0.00 81 1011.1
20260906081938 25 123 0.0 0.0 0.00 0.00 0.00 81 1011.1
20260906081144 25 123 0.0 0.0 0.00 0.00 0.00 81 1011.2
20260906080619 25 123 0.0 0.0 0.00 0.00 0.00 80 1011.3
20260906080337 26 123 0.0 0.0 0.00 0.00 0.00 80 1011.2
20260906075616 26 123 0.0 0.0 0.00 0.00 0.00 80 1011.3
20260906075106 26 123 0.0 0.0 0.00 0.00 0.00 79 1011.2
20260906074603 26 123 0.0 0.0 0.00 0.00 0.00 79 1011.2
20260906074104 26 123 0.0 0.0 0.00 0.00 0.00 79 1011.3
20260906073828 26 123 0.0 0.0 0.00 0.00 0.00 79 1011.3
20260906073055 26 123 0.0 3.2 0.00 0.00 0.00 78 1011.3
20260906072556 26 123 0.0 3.2 0.00 0.00 0.00 78 1011.3
20260906072031 26 228 0.0 1.6 0.00 0.00 0.00 77 1011.3
20260906071506 26 228 0.0 3.2 0.00 0.00 0.00 77 1011.3
20260906071006 26 153 0.0 3.2 0.00 0.00 0.00 77 1011.3
20260906070441 26 153 0.0 4.8 0.00 0.00 0.00 77 1011.2
20260906065938 26 233 0.0 4.8 0.00 0.00 0.00 77 1011.2
20260906065437 26 190 0.0 3.2 0.00 0.00 0.00 76 1011.2
20260906064908 26 205 0.0 3.2 0.00 0.00 0.00 76 1011.2
20260906064623 26 147 1.6 4.8 0.00 0.00 0.00 76 1011.1
20260906063909 27 125 1.6 6.4 0.00 0.00 0.00 76 1011.2
20260906063348 27 131 1.6 6.4 0.00 0.00 0.00 75 1011.3
20260906063114 27 243 1.6 6.4 0.00 0.00 0.00 75 1011.3
20260906062327 27 120 3.2 9.7 0.00 0.00 0.00 75 1011.4
20260906061828 27 177 3.2 9.7 0.00 0.00 0.00 74 1011.4
20260906061305 27 210 3.2 9.7 0.00 0.00 0.00 74 1011.5
20260906060738 27 139 3.2 11.3 0.00 0.00 0.00 74 1011.6
20260906060215 27 174 1.6 8.0 0.00 0.00 0.00 73 1011.6
20260906055656 27 256 1.6 8.0 0.00 0.00 0.00 73 1011.6
20260906055154 27 123 1.6 8.0 0.00 0.00 0.00 72 1011.6
20260906054656 27 267 3.2 9.7 0.00 0.00 0.00 72 1011.7
20260906054127 27 222 1.6 9.7 0.00 0.00 0.00 71 1011.6
20260906053626 27 247 1.6 6.4 0.00 0.00 0.00 71 1011.6
20260906053126 27 209 1.6 6.4 0.00 0.00 0.00 70 1011.5
20260906052623 27 231 3.2 6.4 0.00 0.00 0.00 69 1011.5
20260906052104 28 208 3.2 8.0 0.00 0.00 0.00 69 1011.4
20260906051539 28 250 3.2 8.0 0.00 0.00 0.00 68 1011.4
20260906051038 28 150 3.2 9.7 0.00 0.00 0.00 68 1011.4
20260906050525 28 225 3.2 9.7 0.00 0.00 0.00 68 1011.5
20260906050025 28 115 3.2 9.7 0.00 0.00 0.00 67 1011.5
20260906045528 28 131 1.6 8.0 0.00 0.00 0.00 67 1011.4
20260906045011 28 251 1.6 6.4 0.00 0.00 0.00 67 1011.3
20260906044509 28 158 0.0 3.2 0.00 0.00 0.00 67 1011.2
20260906044012 28 141 1.6 6.4 0.00 0.00 0.00 67 1011.2
20260906043451 28 153 3.2 11.3 0.00 0.00 0.00 67 1011.2
20260906042949 28 183 3.2 11.3 0.00 0.00 0.00 67 1011.3
20260906042451 28 212 1.6 8.0 0.00 0.00 0.00 66 1011.4
20260906041926 28 244 3.2 11.3 0.00 0.00 0.00 66 1011.5
20260906041636 28 109 3.2 11.3 0.00 0.00 0.00 65 1011.5
20260906040921 28 212 3.2 9.7 0.00 0.00 0.00 65 1011.5
20260906040424 28 213 3.2 9.7 0.00 0.00 0.00 64 1011.5
20260906035857 29 134 3.2 9.7 0.00 0.00 0.00 64 1011.5
20260906035332 29 210 3.2 9.7 0.00 0.00 0.00 64 1011.6
20260906034825 28 124 1.6 9.7 0.00 0.00 0.00 64 1011.5
20260906034324 28 284 0.0 3.2 0.00 0.00 0.00 65 1011.4
20260906034020 29 191 0.0 1.6 0.00 0.00 0.00 65 1011.4
20260906033254 29 228 1.6 6.4 0.00 0.00 0.00 65 1011.3
20260906032749 29 164 1.6 6.4 0.00 0.00 0.00 65 1011.3
20260906032248 29 203 1.6 8.0 0.00 0.00 0.00 64 1011.4
20260906031719 29 163 3.2 8.0 0.00 0.00 0.00 64 1011.4
20260906031657 29 136 3.2 9.7 0.00 0.00 0.00 64 1011.4
20260906030713 29 139 3.2 9.7 0.00 0.00 0.00 64 1011.3
20260906030147 29 144 4.8 11.3 0.00 0.00 0.00 63 1011.3
20260906025622 29 257 4.8 11.3 0.00 0.00 0.00 64 1011.3
20260906025052 29 223 3.2 11.3 0.00 0.00 0.00 64 1011.3
20260906024547 29 204 1.6 8.0 0.00 0.00 0.00 65 1011.3
20260906024023 30 249 1.6 8.0 0.00 0.00 0.00 65 1011.2
20260906023455 30 134 3.2 11.3 0.00 0.00 0.00 65 1011.1
20260906022926 30 158 4.8 11.3 0.00 0.00 0.00 64 1011.1
20260906022423 30 144 3.2 9.7 0.00 0.00 0.00 64 1011.0
20260906022126 30 146 4.8 12.9 0.00 0.00 0.00 63 1010.9
20260906021335 30 212 4.8 16.1 0.00 0.00 0.00 63 1010.8
20260906020838 30 236 6.4 16.1 0.00 0.00 0.00 62 1010.8
20260906020312 30 155 4.8 14.5 0.00 0.00 0.00 62 1010.6
20260906015743 30 204 3.2 14.5 0.00 0.00 0.00 62 1010.5
20260906015240 30 110 4.8 14.5 0.00 0.00 0.00 62 1010.6
20260906014737 30 163 6.4 14.5 0.00 0.00 0.00 61 1010.5
20260906014235 30 110 4.8 14.5 0.00 0.00 0.00 61 1010.6
20260906013954 30 125 4.8 12.9 0.00 0.00 0.00 60 1010.5
20260906013210 30 115 6.4 12.9 0.00 0.00 0.00 59 1010.3
20260906012702 30 265 6.4 14.5 0.00 0.00 0.00 59 1010.2
20260906012136 30 128 6.4 16.1 0.00 0.00 0.00 58 1010.1
20260906011623 31 167 6.4 16.1 0.00 0.00 0.00 57 1010.1
20260906011126 31 122 6.4 19.3 0.00 0.00 0.00 56 1010.0
20260906010621 31 136 6.4 19.3 0.00 0.00 0.00 56 1010.0
20260906010120 31 248 8.0 24.1 0.00 0.00 0.00 55 1010.0
20260906005551 31 134 9.7 24.1 0.00 0.00 0.00 54 1009.9
20260906005051 31 176 8.0 20.9 0.00 0.00 0.00 53 1009.9
20260906004550 32 147 9.7 19.3 0.00 0.00 0.00 52 1010.0
20260906004051 32 108 9.7 17.7 0.00 0.00 0.00 50 1009.9
20260906004031 33 219 9.7 19.3 0.00 0.00 0.00 48 1009.9
20260906003046 33 133 9.7 19.3 0.00 0.00 0.00 46 1009.9
20260906002807 33 115 9.7 19.3 0.00 0.00 0.00 44 1009.8
20260906002046 34 119 8.0 19.3 0.00 0.00 0.00 44 1009.7
20260906001518 35 132 8.0 16.1 0.00 0.00 0.00 44 1009.6
20260906000953 35 112 8.0 19.3 0.00 0.00 0.00 43 1009.6
20260906000644 35 136 9.7 19.3 0.00 0.00 0.00 42 1009.5
20260905235922 35 136 8.0 17.7 0.00 0.00 0.00 41 1009.4
20260905235419 36 135 6.4 17.7 0.00 0.00 0.00 40 1009.4
20260905235142 37 144 3.2 9.7 0.00 0.00 0.00 37 1009.3
20260905234612 37 123 0.0 4.8 0.00 0.00 0.00 35 1009.2
20260905234053 37 136 0.0 4.8 0.00 0.00 0.00 35 1009.2
20260905233553 37 238 1.6 6.4 0.00 0.00 0.00 35 1009.1
20260905232833 37 155 1.6 6.4 0.00 0.00 0.00 35 1009.1
20260905232329 37 110 0.0 6.4 0.00 0.00 0.00 35 1009.1
20260905231803 37 115 1.6 4.8 0.00 0.00 0.00 36 1009.2
20260905231253 37 146 3.2 8.0 0.00 0.00 0.00 35 1009.3
20260905230751 37 131 3.2 9.7 0.00 0.00 0.00 35 1009.3
20260905230250 37 129 3.2 9.7 0.00 0.00 0.00 34 1009.3
20260905225725 37 146 3.2 11.3 0.00 0.00 0.00 35 1009.2
20260905225227 37 85 3.2 11.3 0.00 0.00 0.00 35 1009.2
20260905224725 37 256 1.6 9.7 0.00 0.00 0.00 34 1009.2
20260905224225 38 243 1.6 6.4 0.00 0.00 0.00 34 1009.2
20260905223719 38 152 0.0 6.4 0.00 0.00 0.00 33 1009.1
20260905223219 37 80 0.0 1.6 0.00 0.00 0.00 35 1009.1
20260905222718 37 95 1.6 12.9 0.00 0.00 0.00 36 1009.2
20260905222218 37 245 3.2 12.9 0.00 0.00 0.00 35 1009.2
20260905221945 37 228 4.8 11.3 0.00 0.00 0.00 36 1009.1
20260905221220 37 120 3.2 14.5 0.00 0.00 0.00 35 1009.1
20260905220704 37 105 3.2 14.5 0.00 0.00 0.00 34 1009.2
20260905220202 37 89 4.8 9.7 0.00 0.00 0.00 35 1009.3
20260905215700 37 214 3.2 11.3 0.00 0.00 0.00 35 1009.3
20260905215143 38 123 4.8 12.9 0.00 0.00 0.00 34 1009.4
20260905214846 38 143 4.8 17.7 0.00 0.00 0.00 33 1009.4
20260905214109 38 119 1.6 17.7 0.00 0.00 0.00 33 1009.4
20260905213823 38 106 0.0 9.7 0.00 0.00 0.00 34 1009.4
20260905213106 38 160 1.6 9.7 0.00 0.00 0.00 36 1009.5
20260905212605 37 159 3.2 9.7 0.00 0.00 0.00 34 1009.6
20260905212103 37 124 3.2 9.7 0.00 0.00 0.00 34 1009.6
20260905211540 37 113 3.2 11.3 0.00 0.00 0.00 37 1009.6
20260905211016 36 88 3.2 9.7 0.00 0.00 0.00 37 1009.7
20260905210515 37 4 3.2 9.7 0.00 0.00 0.00 35 1009.9
20260905205959 37 134 1.6 8.0 0.00 0.00 0.00 35 1009.9
20260905205456 37 347 1.6 11.3 0.00 0.00 0.00 35 1010.0
20260905204959 37 108 1.6 11.3 0.00 0.00 0.00 35 1010.1
20260905204434 37 17 3.2 8.0 0.00 0.00 0.00 36 1010.2
20260905203907 37 127 4.8 14.5 0.00 0.00 0.00 36 1010.2
20260905203635 37 185 3.2 14.5 0.00 0.00 0.00 36 1010.3
20260905202844 37 136 1.6 9.7 0.00 0.00 0.00 37 1010.3
20260905202351 37 325 3.2 9.7 0.00 0.00 0.00 34 1010.5
20260905201827 37 107 3.2 12.9 0.00 0.00 0.00 35 1010.5
20260905201326 37 243 4.8 12.9 0.00 0.00 0.00 36 1010.5
20260905201044 38 205 1.6 9.7 0.00 0.00 0.00 33 1010.6
20260905200327 38 115 1.6 6.4 0.00 0.00 0.00 34 1010.7
20260905195813 37 114 1.6 6.4 0.00 0.00 0.00 36 1010.7
20260905195300 37 137 3.2 8.0 0.00 0.00 0.00 36 1010.8
20260905194800 37 75 3.2 9.7 0.00 0.00 0.00 35 1010.9
20260905194257 37 214 3.2 11.3 0.00 0.00 0.00 36 1010.9
20260905194023 37 128 3.2 11.3 0.00 0.00 0.00 34 1011.0
20260905193230 37 129 1.6 9.7 0.00 0.00 0.00 35 1011.1
20260905192732 36 146 1.6 11.3 0.00 0.00 0.00 36 1011.2
20260905192209 36 52 3.2 11.3 0.00 0.00 0.00 37 1011.3